Etusivu
METAR-TAF:

METAR-TAF

Lentoasemat :

Air Force Base Overberg

Bredasdorp, Etelä-Afrikka

Leveyspiiri: 34-33-17S, Pituuspiiri: 20-15-02E, korkeus merenpinnasta: 16 m

Tämänhetkinen sää

Tämä raportti tehtiin 28 minuuttia sitten, kello 04.00 UTC
Tuuli 3 kn lännestä/lounaasta
Lämpötila 17°C
Kosteus 88%
Ilmanpaine 1022 hPa

METAR: FAOB 260400Z AUTO 25003KT //// // ////// 17/15 Q1022

Aika: 06:28 (04:28 UTC)


TAF: puuttuu

Säähavainnot ja -ennusteet yli 4000 lentoasemalta (METAR- ja TAF-raportit).

Käytössä olevat sääasemat on merkitty karttaan keltaisilla ja punaisilla pisteillä.

Aseta hiiri pisteen päälle nähdäksesi sääaseman nimen.

Klikkaa sitten nähdäksesi säähavainnot ja -ennusteet.

Kartan vaihtaminen: klikkaa mustalla rastilla varustettuja vihreitä pisteitä, niin voit zoomata sisään; viivalla varustettua vihreää pistettä, niin voit zoomata ulos tai vihreitä nuolia, niin pääset viereisille kartoille.


METAR-TAF: